This is the latest recevied weather packets stored in our database for station/object KE5VBO-1. If no packets are shown the sender has not sent any weather packets the latest 10 day(s).
| Time | Temp. | Humidity | Pressure | Rain* | Wind** | Luminosity | Snow |
|---|---|---|---|---|---|---|---|
| 1777845628 | 27.78° C | 33% | 1014.3 hPa | 0 mm | - | - | - |
| 1777844763 | 27.78° C | 34% | 1014.4 hPa | 0 mm | - | - | - |
| 1777843823 | 27.78° C | 33% | 1014.8 hPa | 0 mm | - | - | - |
| 1777842967 | 27.78° C | 31% | 1015 hPa | 0 mm | - | - | - |
| 1777842035 | 28.33° C | 37% | 1015.2 hPa | 0 mm | - | - | - |
| 1777841104 | 28.33° C | 31% | 1015.5 hPa | 0 mm | - | - | - |
| 1777840245 | 28.33° C | 33% | 1015.8 hPa | 0 mm | - | - | - |
| 1777839311 | 28.89° C | 34% | 1016.1 hPa | 0 mm | - | - | - |
| 1777838451 | 28.89° C | 32% | 1016.4 hPa | 0 mm | - | - | - |
| 1777837523 | 28.89° C | 35% | 1016.6 hPa | 0 mm | - | - | - |
| 1777836680 | 29.44° C | 35% | 1016.8 hPa | 0 mm | - | - | - |
| 1777835745 | 28.89° C | 37% | 1016.9 hPa | 0 mm | - | - | - |
| 1777834862 | 28.33° C | 36% | 1017.1 hPa | 0 mm | - | - | - |
| 1777833917 | 28.89° C | 36% | 1017.4 hPa | 0 mm | - | - | - |
| 1777833055 | 28.33° C | 38% | 1017.6 hPa | 0 mm | - | - | - |
| 1777832121 | 27.78° C | 40% | 1017.8 hPa | 0 mm | - | - | - |
| 1777831258 | 27.78° C | 41% | 1018.2 hPa | 0 mm | - | - | - |
| 1777830311 | 27.22° C | 42% | 1018.5 hPa | 0 mm | - | - | - |
| 1777829442 | 27.22° C | 41% | 1018.7 hPa | 0 mm | - | - | - |
| 1777828510 | 27.22° C | 43% | 1019 hPa | 0 mm | - | - | - |
| 1777827663 | 26.67° C | 44% | 1019.1 hPa | 0 mm | - | - | - |
| 1777826711 | 25.56° C | 46% | 1019.2 hPa | 0 mm | - | - | - |
| 1777825852 | 25.56° C | 48% | 1019.3 hPa | 0 mm | - | - | - |
| 1777824910 | 25° C | 50% | 1019.4 hPa | 0 mm | - | - | - |
| 1777824066 | 23.89° C | 50% | 1019.6 hPa | 0 mm | - | - | - |
* Rain latest hour (hover to see other rain measurements)
** Current wind speed in m/s (hover to see current wind gust speed)